Regional Weather Roundup
Issued by NWS

Home | Current Version | Previous Version | Graphics & Text | Print | Product List | Glossary On
Versions: 1 2 3 4 5 6 7 8 9 10 11 12 13 14 15 16 17 18 19 20 21 22 23 24 25 26 27 28 29 30 31 32 33 34 35 36 37 38 39 40 41 42 43 44 45 46 47 48 49 50
141
ASUS44 KMEG 281000
RWRTN
TENNESSEE HOURLY STATE WEATHER ROUNDUP
NATIONAL WEATHER SERVICE MEMPHIS TN
500 AM CDT SAT MAY 28 2016

TNZ002-004-019-021-049-052-054-088>092-281100-
WEST TENNESSEE

CITY           SKY/WX    TMP DP  RH WIND       PRES   REMARKS
MEMPHIS INTL   LGT RAIN  72  66  81 SE3       29.94R
NWS MEMPHIS      N/A     67 N/A N/A MISG        N/A
JACKSON        CLOUDY    68  64  87 CALM      29.96R
DYERSBURG      CLOUDY    68  64  88 CALM      29.95R
UNION CITY     CLEAR     70  66  88 SE6       29.94R
PARIS          CLEAR     68  63  83 SE5       29.98R
LEXINGTON      CLEAR     72  64  78 CALM      29.97R
$$

TNZ008-025-027-028-033-062-065-066-281100-
NORTH MIDDLE TENNESSEE

CITY           SKY/WX    TMP DP  RH WIND       PRES   REMARKS
NASHVILLE      CLOUDY    73  64  73 SE7       30.01S
CLARKSVILLE    CLOUDY    70  65  84 SE6       29.99R
COOKEVILLE     CLEAR     72  63  73 S3        30.06R
CROSSVILLE     CLEAR     66  59  78 CALM      30.12R
$$

TNZ061-075-076-078-094-096-097-281100-
SOUTH MIDDLE TENNESSEE

CITY           SKY/WX    TMP DP  RH WIND       PRES   REMARKS
TULLAHOMA      PTCLDY    68  68 100 SE3       30.06S
WINCHESTER     CLEAR     72  63  73 S8        30.06R
SHELBYVILLE    CLEAR     72  66  83 SE7       30.04S
$$

TNZ017-018-042-046-047-281100-
NORTHEAST TENNESSEE

CITY           SKY/WX    TMP DP  RH WIND       PRES   REMARKS
TRI CITIES     FOG       59  58  96 CALM      30.16R VSB 1/2
$$

TNZ012-013-036-069-073-074-281100-
CENTRAL EAST TENNESSEE

CITY           SKY/WX    TMP DP  RH WIND       PRES   REMARKS
KNOXVILLE      FOG       64  63  96 NE3       30.09S VSB 1/4
OAK RIDGE      FOG       66  65  96 CALM      30.11S VSB 1/2
GATLINBURG     CLOUDY    61  61 100 CALM      30.10S VSB 1/4
$$

TNZ083-085-099-281100-
SOUTHEAST TENNESSEE

CITY           SKY/WX    TMP DP  RH WIND       PRES   REMARKS
CHATTANOOGA    MOCLDY    66  61  84 CALM      30.09R
$$

SKY/WX REPORTED AS FAIR MEANS FEW OR NO CLOUDS BELOW
12 THOUSAND FEET.





USA.gov is the U.S. government's official web portal to all federal, state and local government web resources and services.